Вернуться в каталог

CSG-1

АктивенНаукаSSO
NORAD 44873·PAYLOAD·🇮🇹 Italy

Запущен Dec 18, 2019 с Guiana Space Centre

Loading…

Ближайшие Пролёты (ближайшие 24 часа)

TLE

СвежийSource: Space-Track

Эпоха: Sep 14, 2026, 13:41 UTC

1 44873U 19092A   26257.57035954  .00000281  00000-0  41860-4 0  9991
2 44873  97.8917  79.9012 0001391  86.3584 273.7788 14.82157480364718

Отслеживайте CSG-1 в реальном времени с AllMySat

Download on the App Store